Pogoda w Łodzi

0831 UTC 26 June 2019 EPLL 260800Z 21009KT 150V240 CAVOK 31/16 Q1022

Where pilots are born

  • Michele from Italy

    „The best”

  • Maciej from UK

    “Great place, good aircrafts and amazing atmosphere!!!”

  • Alan from Ireland

    “Fantastic flight school . Fleet of aircraft are exceptional . Instructors are second to none . I couldn't speak any higher...

22000+

Operations per year

1500+

Number of trained pilots

55+

Nationality students

Jak przystąpić do szkolenia ?